[[{"header":{"parameterUnit":"m.s-1","parameterCategory":1,"la1":30.2991,"la2":30.254,"lo1":-89.0895,"lo2":-89.0444,"dy":0.0017,"dx":0.0017,"nx":28,"ny":28,"refTime":"2023-09-03T09:00:00:Z","depth":0,"parameterNumber":2,"parameterNumberName":"U-component_of_WINDS"},"data":[0,0,0,0,0,0,0,0,0,0,0,0,0,0,0,0,0,0,0,0,0,0,0,0,0,0,0,0,0,0,0,0,0,0,0,0,0,0,0,0,0,0,0,0,0,0,0,0,0,0,0,0,0,0,0,0,0,0,-5.7996,-5.7996,0,-5.8024,-5.8025,-5.8025,-5.7946,-5.7943,-5.7941,-5.7939,-5.7963,-5.7966,-5.7969,0,0,0,0,0,0,0,0,0,0,0,0,0,-5.787,-5.7873,-5.7996,-5.7996,-5.7997,-5.8024,-5.8025,-5.8025,-5.7946,-5.7943,-5.794,-5.7938,-5.7962,-5.7966,-5.7969,0,0,0,0,0,0,0,0,0,0,0,0,0,-5.7914,-5.7874,-5.7996,-5.7961,-5.7958,-5.8024,-5.8025,-5.8025,-5.7947,-5.7943,-5.794,-5.7936,-5.7961,-5.7966,-5.797,-5.807,0,0,-5.7983,-5.7985,0,0,0,0,0,0,0,0,-5.7912,-5.7919,-5.7966,-5.7963,-5.796,-5.7978,-5.7989,-5.804,-5.7948,-5.7951,-5.7939,-5.7934,-5.7971,-5.7974,-5.7987,-5.8071,-5.8072,-5.7984,-5.7986,-5.7988,-5.799,0,0,0,0,0,0,0,-5.7909,-5.7917,-5.8007,-5.7966,-5.7963,-5.7942,-5.7945,-5.7998,-5.7981,-5.795,-5.7945,-5.7949,-5.7969,-5.7983,-5.7987,-5.8073,-5.7984,-5.7988,-5.799,-5.7992,-5.8238,-5.8241,0,0,0,0,0,0,-5.7911,-5.7915,-5.8006,-5.8008,-5.7927,-5.7948,-5.795,-5.7976,-5.798,-5.7977,-5.7952,-5.7946,-5.7978,-5.7982,-5.7988,-5.8103,-5.7988,-5.7992,-5.7995,-5.8234,-5.8238,-5.8243,0,0,0,0,0,0,-5.7908,-5.792,-5.8005,-5.796,-5.7969,-5.7954,-5.7983,-5.7978,-5.7993,-5.7982,-5.7978,-5.7971,-5.7975,-5.7982,-5.805,-5.8102,-5.7994,-5.7998,-5.8229,-5.8235,-5.8241,-5.8335,0,0,0,0,0,0,-5.7905,-5.7919,-5.7958,-5.7962,-5.7972,-5.8068,-5.7987,-5.7981,-5.8001,-5.7992,-5.7998,-5.7995,-5.7973,-5.8044,-5.8054,-5.8106,-5.8002,-5.8224,-5.8232,-5.8239,-5.8327,-5.8343,-5.8357,0,0,0,0,0,-5.7901,-5.7983,-5.796,-5.7972,-5.802,-5.8071,-5.8077,-5.805,-5.8006,-5.8043,-5.8036,-5.7995,-5.8097,-5.8052,-5.8063,-5.8117,-5.8221,-5.823,-5.8238,-5.832,-5.834,-5.8356,0,0,0,0,0,0,-5.7984,-5.7982,-5.7957,-5.8043,-5.8058,-5.8057,-5.8104,-5.8072,-5.8099,-5.8089,-5.8054,-5.8056,-5.813,-5.8131,-5.8081,-5.8213,-5.8151,-5.8162,-5.8209,-5.8228,-5.8243,-5.8238,-5.8005,0,0,0,0,0,-5.8013,-5.8055,-5.8051,-5.8127,-5.8136,-5.812,-5.8141,-5.8119,-5.8132,-5.8137,-5.8135,-5.8149,-5.8183,-5.8206,-5.8238,-5.8328,-5.8326,-5.8371,-5.8386,-5.8399,-5.8407,-5.8453,-5.8471,-5.8271,-5.8271,-5.8271,0,0,-5.8071,-5.8076,-5.8104,-5.8144,-5.8153,-5.8196,-5.8125,-5.8174,-5.8205,-5.8144,-5.8207,-5.8208,-5.822,-5.8299,-5.8334,-5.8302,-5.8463,-5.841,-5.842,-5.8422,-5.8464,-5.8483,-5.8499,-5.8277,-5.8276,-5.8275,0,0,-5.8199,-5.8209,-5.8271,-5.8282,-5.8297,-5.8286,-5.8302,-5.8306,-5.8304,-5.8368,-5.8323,-5.8359,-5.842,-5.843,-5.8443,-5.8578,-5.8539,-5.8589,-5.8666,-5.871,-5.8726,-5.874,-5.8784,-5.88,-5.8599,-5.8599,-5.8599,0,-5.8269,-5.8333,-5.8307,-5.8359,-5.8377,-5.8327,-5.8389,-5.8401,-5.8425,-5.8438,-5.8403,-5.8478,-5.8483,-5.8562,-5.8595,-5.8609,-5.8623,-5.8585,-5.8726,-5.874,-5.8752,-5.8794,-5.8811,-5.8605,-5.8604,-5.8603,-5.8603,0,-5.8417,-5.8463,-5.8512,-5.8537,-5.8561,-5.8618,-5.8599,-5.8627,-5.8605,-5.8596,-5.8661,-5.8666,-5.8697,-5.8715,-5.8694,-5.8792,-5.8771,-5.8733,-5.8668,-5.8777,-5.8815,-5.8831,-5.8613,-5.8611,-5.8609,-5.8608,0,0,-5.8593,-5.8606,-5.8623,-5.8634,-5.8648,-5.8681,-5.8737,-5.8768,-5.879,-5.881,-5.8852,-5.8906,-5.887,-5.8885,-5.8865,-5.8905,-5.9006,-5.8861,-5.886,-5.8884,-5.9111,-5.9136,-5.9155,-5.8984,-5.8987,-5.8989,-5.9108,0,-5.8716,-5.881,-5.8789,-5.8881,-5.8921,-5.8876,-5.8923,-5.8936,-5.8931,-5.8963,-5.8957,-5.8994,-5.8946,-5.8955,-5.8993,-5.8986,-5.9051,-5.8978,-5.902,-5.9021,-5.9013,-5.9176,-5.9203,-5.9315,-5.9124,-5.9126,-5.9128,0,-5.887,-5.8896,-5.8993,-5.8999,-5.9015,-5.9058,-5.9085,-5.9118,-5.9131,-5.9125,-5.9143,-5.9115,-5.9167,-5.9107,-5.9177,-5.9128,-5.9144,-5.9144,-5.9148,-5.9146,-5.9078,-5.9175,-5.9351,-5.9366,-5.9152,-5.915,-5.9148,0,-5.8984,-5.9044,-5.9108,-5.9119,-5.913,-5.9161,-5.9166,-5.9177,-5.9197,-5.922,-5.9232,-5.9262,-5.9277,-5.93,-5.928,-5.9238,-5.9352,-5.9291,-5.9345,-5.9345,-5.9366,-5.9364,-5.9543,-5.9386,-5.9386,-5.9385,-5.9385,0,-5.912,-5.918,-5.9159,-5.9198,-5.9263,-5.924,-5.9304,-5.9305,-5.9315,-5.9352,-5.9316,-5.9351,-5.9325,-5.9358,-5.9344,-5.9402,-5.941,-5.9404,-5.9398,-5.9405,-5.9405,-5.9411,-5.9401,-5.939,-5.9389,-5.9388,-5.9387,0,-5.9256,-5.9245,-5.9312,-5.9317,-5.932,-5.9368,-5.9371,-5.9407,-5.9401,-5.9448,-5.9458,-5.9447,-5.9484,-5.9468,-5.9507,-5.9497,-5.9571,-5.9558,-5.9566,-5.9561,-5.9614,-5.9608,-5.9799,-5.9821,-5.9655,-5.9656,-5.9658,0,-5.9341,-5.9385,-5.9397,-5.942,-5.9428,-5.9466,-5.9486,-5.9466,-5.9488,-5.9508,-5.954,-5.9575,-5.96,-5.9662,-5.9656,-5.9685,-5.9669,-5.9735,-5.9673,-5.9677,-5.9665,-5.9661,-5.9663,-5.9745,-5.9747,-5.9749,-5.975,0,-5.9491,-5.9484,-5.9516,-5.9546,-5.9572,-5.9595,-5.9614,-5.9634,-5.9614,-5.9641,-5.9679,-5.97,-5.974,-5.9773,-5.98,-5.9804,-5.9772,-5.9771,-5.9784,-5.9787,-5.9789,-5.9785,-5.9594,-5.9765,-5.9763,-5.9762,-5.9761,-5.9761,-5.9601,-5.9638,-5.9651,-5.9688,-5.97,-5.9719,-5.9753,-5.9751,-5.9783,-5.9814,-5.9801,-5.9844,-5.9856,-5.9888,-5.9897,-5.993,-5.9904,-5.9924,-5.9928,-5.9932,-5.9937,-5.9789,-5.9935,-5.9935,-5.9934,-5.9934,-5.9933,0,-5.9746,-5.9753,-5.9787,-5.9815,-5.9844,-5.9816,-5.9836,-5.986,-5.9899,-5.9915,-5.9941,-5.9984,-6.0017,-6.0015,-6.0045,-6.0071,-6.0058,-6.0079,-6.0074,-6.0075,-5.9961,-5.9944,-6.009,-6.009,-6.009,-6.009,-6.009,-6.009,-5.9824,-5.9884,-5.9879,-5.9945,-5.9951,-5.9994,-6.0008,-6.0024,-6.0036,-6.0086,-6.0113,-6.0113,-6.0121,-6.0151,-6.0179,-6.0178,-6.0188,-6.0215,-6.0207,-6.0099,-6.0084,-6.0069,-6.0053,-6.0218,-6.0219,-6.0318,-6.0319,-6.032]},{"header":{"parameterUnit":"m.s-1","parameterCategory":1,"la1":30.2991,"la2":30.254,"lo1":-89.0895,"lo2":-89.0444,"dy":0.0017,"dx":0.0017,"nx":28,"ny":28,"refTime":"2023-09-03T09:00:00:Z","depth":0,"parameterNumber":3,"parameterNumberName":"V-component_of_WINDS"},"data":[0,0,0,0,0,0,0,0,0,0,0,0,0,0,0,0,0,0,0,0,0,0,0,0,0,0,0,0,0,0,0,0,0,0,0,0,0,0,0,0,0,0,0,0,0,0,0,0,0,0,0,0,0,0,0,0,0,0,4.0328,4.0329,0,4.0425,4.0427,4.0428,4.0361,4.0358,4.0355,4.0352,4.0446,4.0451,4.0456,0,0,0,0,0,0,0,0,0,0,0,0,0,4.0079,4.0084,4.0328,4.0329,4.033,4.0425,4.0427,4.0428,4.0362,4.0358,4.0354,4.0351,4.0444,4.045,4.0457,0,0,0,0,0,0,0,0,0,0,0,0,0,4.0182,4.0085,4.0328,4.0309,4.0308,4.0425,4.0427,4.0428,4.0363,4.0358,4.0354,4.0349,4.0442,4.045,4.0458,4.0596,0,0,4.0482,4.0485,0,0,0,0,0,0,0,0,4.0177,4.0192,4.031,4.031,4.031,4.0377,4.0373,4.0484,4.0364,4.0342,4.0352,4.0347,4.0426,4.0435,4.0463,4.0601,4.0605,4.0482,4.0487,4.0491,4.0493,0,0,0,0,0,0,0,4.017,4.0187,4.0366,4.0312,4.0312,4.0294,4.0304,4.0394,4.0408,4.0343,4.0339,4.0352,4.0425,4.0455,4.0465,4.0606,4.0482,4.0489,4.0494,4.0497,4.0863,4.0868,0,0,0,0,0,0,4.0165,4.0181,4.0363,4.0369,4.0231,4.0302,4.0313,4.036,4.0406,4.0409,4.0355,4.0348,4.0444,4.0455,4.0468,4.0634,4.0491,4.0498,4.0503,4.0858,4.0864,4.0869,0,0,0,0,0,0,4.016,4.0182,4.0359,4.0274,4.0295,4.0311,4.0364,4.0364,4.0394,4.0416,4.0417,4.0384,4.0441,4.0456,4.0565,4.0636,4.0502,4.0509,4.0852,4.086,4.0867,4.0966,0,0,0,0,0,0,4.0153,4.018,4.0234,4.0276,4.03,4.0457,4.0368,4.0369,4.0409,4.0401,4.0443,4.0446,4.0439,4.0554,4.0573,4.0644,4.0515,4.0846,4.0856,4.0864,4.0957,4.0976,4.0993,0,0,0,0,0,4.0144,4.0257,4.0237,4.026,4.0369,4.0461,4.0475,4.0466,4.0415,4.0469,4.0483,4.0445,4.0625,4.0566,4.0587,4.0661,4.0841,4.0853,4.0864,4.0949,4.0973,4.0993,0,0,0,0,0,0,4.022,4.0262,4.0241,4.0371,4.0413,4.045,4.0517,4.0492,4.0548,4.0537,4.0522,4.0532,4.0647,4.0665,4.0597,4.0798,4.0725,4.0741,4.0782,4.0805,4.0823,4.0816,4.0521,0,0,0,0,0,4.0252,4.0326,4.0358,4.0469,4.0492,4.0502,4.0541,4.0532,4.0574,4.0591,4.0613,4.0654,4.072,4.0763,4.0825,4.096,4.0968,4.1021,4.1039,4.1054,4.1068,4.114,4.1165,4.0906,4.0906,4.0906,0,0,4.0319,4.0351,4.0398,4.0485,4.0517,4.0593,4.0517,4.0599,4.0655,4.0603,4.0708,4.0725,4.077,4.0893,4.0948,4.0911,4.1141,4.1068,4.108,4.1086,4.1154,4.1179,4.1201,4.0914,4.0912,4.0911,0,0,4.0478,4.0511,4.0607,4.0642,4.0692,4.0698,4.0722,4.0763,4.0773,4.0879,4.0842,4.0907,4.1021,4.1055,4.1087,4.1262,4.1229,4.1282,4.1376,4.1448,4.1468,4.1486,4.1548,4.1571,4.1296,4.1296,4.1296,0,4.0554,4.0668,4.066,4.0746,4.0786,4.0745,4.0843,4.0875,4.0943,4.097,4.0929,4.1073,4.11,4.123,4.1273,4.13,4.1326,4.1277,4.1466,4.1484,4.1501,4.156,4.1584,4.1302,4.1302,4.1301,4.1301,0,4.0759,4.0839,4.091,4.098,4.1027,4.1118,4.1122,4.1171,4.1158,4.1167,4.1275,4.1307,4.1375,4.1406,4.1392,4.1534,4.151,4.1468,4.1394,4.1532,4.1587,4.161,4.1311,4.1309,4.1307,4.1306,0,0,4.0967,4.1033,4.1059,4.1091,4.1144,4.1205,4.1294,4.1363,4.1406,4.1453,4.1527,4.1626,4.1588,4.1625,4.1614,4.1677,4.1814,4.1627,4.1628,4.1661,4.1973,4.2005,4.2031,4.1793,4.1798,4.1801,4.197,0,4.113,4.1289,4.1285,4.1431,4.1505,4.1468,4.1546,4.1587,4.1599,4.1661,4.1673,4.1744,4.1688,4.171,4.1771,4.1785,4.1877,4.1773,4.1861,4.1864,4.1851,4.206,4.2093,4.2251,4.1991,4.1995,4.1998,0,4.1341,4.14,4.1555,4.1599,4.163,4.17,4.1764,4.1825,4.1869,4.1874,4.1916,4.1896,4.1986,4.191,4.2033,4.1962,4.1998,4.201,4.2016,4.2024,4.1939,4.2073,4.2301,4.2325,4.2032,4.2029,4.2027,0,4.1478,4.1595,4.1704,4.1731,4.1786,4.1836,4.186,4.1901,4.1944,4.1999,4.2026,4.209,4.2125,4.2174,4.2172,4.2117,4.2296,4.222,4.2301,4.2301,4.234,4.2337,4.2576,4.2363,4.2363,4.2363,4.2362,0,4.1661,4.1757,4.1766,4.1833,4.1939,4.1933,4.2038,4.2057,4.2094,4.2163,4.2134,4.2198,4.2192,4.2256,4.2255,4.2357,4.2372,4.2377,4.2376,4.238,4.238,4.2403,4.2392,4.2369,4.2368,4.2366,4.2365,0,4.1831,4.1842,4.1957,4.2,4.2013,4.209,4.2126,4.2188,4.2198,4.2286,4.2305,4.2321,4.2396,4.2399,4.2484,4.2483,4.2607,4.2593,4.2593,4.259,4.2671,4.2663,4.2933,4.2968,4.2733,4.2735,4.2737,0,4.1947,4.2021,4.2073,4.2118,4.2146,4.2219,4.2263,4.226,4.2306,4.2364,4.242,4.2492,4.255,4.2671,4.2689,4.2754,4.2741,4.2831,4.275,4.2753,4.2743,4.2739,4.2746,4.2847,4.2849,4.2852,4.2853,0,4.2151,4.2153,4.2219,4.2288,4.2342,4.2394,4.2443,4.2481,4.2484,4.2537,4.2615,4.266,4.2749,4.2821,4.2885,4.2908,4.2881,4.2879,4.2901,4.2906,4.2903,4.2906,4.2636,4.2872,4.287,4.2869,4.2868,4.2867,4.2298,4.2362,4.241,4.2484,4.2521,4.2568,4.263,4.2649,4.2715,4.2788,4.2782,4.2868,4.2911,4.2995,4.3023,4.309,4.3058,4.309,4.3098,4.3107,4.3116,4.2893,4.3101,4.31,4.31,4.3099,4.3099,0,4.2501,4.253,4.2599,4.267,4.2729,4.2701,4.2754,4.2805,4.2882,4.2926,4.2985,4.3074,4.3144,4.3169,4.3237,4.3285,4.3275,4.3303,4.3299,4.3305,4.3139,4.3114,4.3311,4.3311,4.3311,4.3311,4.3311,4.331,4.2613,4.2721,4.2729,4.2855,4.2883,4.2969,4.3002,4.3045,4.308,4.3183,4.3242,4.3258,4.3294,4.3365,4.3428,4.3433,4.346,4.3494,4.3494,4.3338,4.3317,4.3296,4.3272,4.3499,4.35,4.3654,4.3655,4.3656]}]]